Time,TemperatureF,DewpointF,PressureIn,WindDirection,WindDirectionDegrees,WindSpeedMPH,WindSpeedGustMPH,Humidity,HourlyPrecipIn,Conditions,Clouds,dailyrainin,SoftwareType,DateUTC
2013-08-05 00:02:00,58.0,55.0,29.89,NNW,335,0.0,-999.0,89,-99.99,,,-99.99,,2013-08-05 04:02:00,
2013-08-05 00:12:00,58.0,55.0,29.89,NNW,335,0.0,-999.0,89,-99.99,,,-99.99,,2013-08-05 04:12:00,
2013-08-05 00:22:00,58.0,55.0,29.89,NNW,335,0.0,-999.0,89,-99.99,,,-99.99,,2013-08-05 04:22:00,
2013-08-05 00:32:00,58.0,55.0,29.89,NNW,335,0.0,-999.0,89,-99.99,,,-99.99,,2013-08-05 04:32:00,
2013-08-05 00:43:00,58.0,55.0,29.90,NNW,335,0.0,-999.0,89,-99.99,,,-99.99,,2013-08-05 04:43:00,
2013-08-05 00:52:00,57.0,54.0,29.90,NNW,335,0.0,-999.0,90,-99.99,,,-99.99,,2013-08-05 04:52:00,
2013-08-05 01:02:00,57.0,54.0,29.90,NNW,335,0.0,-999.0,90,-99.99,,,-99.99,,2013-08-05 05:02:00,
2013-08-05 01:12:00,57.0,54.0,29.91,NNW,335,0.0,-999.0,90,-99.99,,,-99.99,,2013-08-05 05:12:00,
2013-08-05 01:22:00,57.0,54.0,29.90,NNW,335,0.0,-999.0,90,-99.99,,,-99.99,,2013-08-05 05:22:00,
2013-08-05 01:32:00,56.0,53.0,29.90,NNW,335,0.0,-999.0,90,-99.99,,,-99.99,,2013-08-05 05:32:00,
2013-08-05 01:42:00,56.0,53.0,29.90,NNW,335,0.0,-999.0,90,-99.99,,,-99.99,,2013-08-05 05:42:00,
2013-08-05 01:53:00,56.0,53.0,29.90,NNW,335,0.0,-999.0,90,-99.99,,,-99.99,,2013-08-05 05:53:00,
2013-08-05 02:02:00,56.0,53.0,29.90,NNW,335,0.0,-999.0,90,-99.99,,,-99.99,,2013-08-05 06:02:00,
2013-08-05 02:12:00,56.0,53.0,29.90,NNW,335,0.0,-999.0,90,-99.99,,,-99.99,,2013-08-05 06:12:00,
2013-08-05 02:22:00,55.0,52.0,29.90,NNW,335,0.0,-999.0,90,-99.99,,,-99.99,,2013-08-05 06:22:00,
2013-08-05 02:32:00,55.0,52.0,29.90,NNW,335,0.0,-999.0,90,-99.99,,,-99.99,,2013-08-05 06:32:00,
2013-08-05 02:43:00,55.0,52.0,29.90,NNW,335,0.0,-999.0,90,-99.99,,,-99.99,,2013-08-05 06:43:00,
2013-08-05 02:52:00,54.0,51.0,29.90,NNW,335,0.0,-999.0,91,-99.99,,,-99.99,,2013-08-05 06:52:00,
2013-08-05 03:02:00,54.0,51.0,29.90,NNW,335,0.0,-999.0,91,-99.99,,,-99.99,,2013-08-05 07:02:00,
2013-08-05 03:12:00,54.0,51.0,29.90,NNW,335,0.0,-999.0,91,-99.99,,,-99.99,,2013-08-05 07:12:00,
2013-08-05 03:22:00,54.0,51.0,29.90,NNW,335,0.0,-999.0,91,-99.99,,,-99.99,,2013-08-05 07:22:00,
2013-08-05 03:32:00,54.0,51.0,29.91,NNW,335,0.0,-999.0,91,-99.99,,,-99.99,,2013-08-05 07:32:00,
2013-08-05 03:43:00,54.0,51.0,29.91,NNW,335,0.0,-999.0,91,-99.99,,,-99.99,,2013-08-05 07:43:00,
2013-08-05 03:53:00,53.0,50.0,29.91,NNW,335,0.0,-999.0,91,-99.99,,,-99.99,,2013-08-05 07:53:00,
2013-08-05 04:02:00,53.0,50.0,29.91,NNW,335,0.0,-999.0,91,-99.99,,,-99.99,,2013-08-05 08:02:00,
2013-08-05 04:12:00,54.0,51.0,29.91,NNW,335,0.0,-999.0,91,-99.99,,,-99.99,,2013-08-05 08:12:00,
2013-08-05 04:22:00,53.0,50.0,29.91,NNW,335,0.0,-999.0,91,-99.99,,,-99.99,,2013-08-05 08:22:00,
2013-08-05 04:34:00,53.0,50.0,29.91,NNW,335,0.0,-999.0,91,-99.99,,,-99.99,,2013-08-05 08:34:00,
2013-08-05 04:50:00,53.0,50.0,29.92,NNW,335,0.0,-999.0,91,-99.99,,,-99.99,,2013-08-05 08:50:00,
2013-08-05 05:07:00,53.0,50.0,29.92,NNW,335,0.0,-999.0,91,-99.99,,,-99.99,,2013-08-05 09:07:00,
2013-08-05 05:27:00,53.0,51.0,29.93,NNW,335,0.0,-999.0,92,-99.99,,,-99.99,,2013-08-05 09:27:00,
2013-08-05 05:40:00,52.0,50.0,29.93,NNW,335,0.0,-999.0,92,-99.99,,,-99.99,,2013-08-05 09:40:00,
2013-08-05 05:48:00,52.0,50.0,29.94,NNW,335,0.0,-999.0,92,-99.99,,,-99.99,,2013-08-05 09:48:00,
2013-08-05 05:53:00,52.0,50.0,29.94,NNW,335,0.0,-999.0,92,-99.99,,,-99.99,,2013-08-05 09:53:00,
2013-08-05 06:11:00,52.0,50.0,29.95,NNW,335,0.0,-999.0,92,-99.99,,,-99.99,,2013-08-05 10:11:00,
2013-08-05 06:17:00,52.0,50.0,29.95,NNW,335,0.0,-999.0,92,-99.99,,,-99.99,,2013-08-05 10:17:00,
2013-08-05 06:28:00,52.0,50.0,29.95,NNW,335,0.0,-999.0,92,-99.99,,,-99.99,,2013-08-05 10:28:00,
2013-08-05 06:34:00,52.0,50.0,29.96,NNW,335,0.0,-999.0,92,-99.99,,,-99.99,,2013-08-05 10:34:00,
2013-08-05 06:48:00,52.0,50.0,29.96,NNW,335,0.0,-999.0,92,-99.99,,,-99.99,,2013-08-05 10:48:00,
2013-08-05 07:38:00,53.0,51.0,29.97,NNW,335,0.0,-999.0,92,-99.99,,,-99.99,,2013-08-05 11:38:00,
2013-08-05 07:50:00,54.0,52.0,29.97,NNW,335,0.0,-999.0,93,-99.99,,,-99.99,,2013-08-05 11:50:00,
2013-08-05 08:08:00,55.0,53.0,29.97,NNW,335,0.0,-999.0,93,-99.99,,,-99.99,,2013-08-05 12:08:00,
2013-08-05 08:17:00,56.0,54.0,29.97,NNW,335,0.0,-999.0,93,-99.99,,,-99.99,,2013-08-05 12:17:00,
2013-08-05 08:28:00,56.0,54.0,29.97,NNW,335,0.0,-999.0,94,-99.99,,,-99.99,,2013-08-05 12:28:00,
2013-08-05 08:33:00,57.0,55.0,29.97,ESE,121,1.0,-999.0,93,-99.99,,,-99.99,,2013-08-05 12:33:00,
2013-08-05 08:50:00,58.0,56.0,29.97,ESE,109,0.0,-999.0,92,-99.99,,,-99.99,,2013-08-05 12:50:00,
2013-08-05 08:56:00,58.0,55.0,29.97,WNW,296,0.0,-999.0,90,-99.99,,,-99.99,,2013-08-05 12:56:00,
2013-08-05 09:14:00,60.0,55.0,29.97,WNW,299,1.0,-999.0,83,-99.99,,,-99.99,,2013-08-05 13:14:00,
2013-08-05 09:28:00,61.0,54.0,29.97,SW,228,1.0,-999.0,79,-99.99,,,-99.99,,2013-08-05 13:28:00,
2013-08-05 09:39:00,61.0,54.0,29.96,NE,55,1.0,-999.0,78,-99.99,,,-99.99,,2013-08-05 13:39:00,
2013-08-05 09:44:00,62.0,55.0,29.97,SE,127,1.0,-999.0,79,-99.99,,,-99.99,,2013-08-05 13:44:00,
2013-08-05 09:54:00,62.0,53.0,29.96,East,95,1.0,-999.0,73,-99.99,,,-99.99,,2013-08-05 13:54:00,
2013-08-05 10:06:00,63.0,52.0,29.97,West,269,1.0,-999.0,68,-99.99,,,-99.99,,2013-08-05 14:06:00,
2013-08-05 10:17:00,63.0,52.0,29.97,West,261,1.0,-999.0,67,-99.99,,,-99.99,,2013-08-05 14:17:00,
2013-08-05 10:28:00,63.0,51.0,29.96,WNW,301,0.0,-999.0,66,-99.99,,,-99.99,,2013-08-05 14:28:00,
2013-08-05 10:48:00,64.0,48.0,29.97,NNW,329,1.0,-999.0,57,-99.99,,,-99.99,,2013-08-05 14:48:00,
2013-08-05 10:54:00,65.0,48.0,29.97,NW,320,1.0,-999.0,54,-99.99,,,-99.99,,2013-08-05 14:54:00,
2013-08-05 11:16:00,65.0,49.0,29.97,NNW,335,1.0,-999.0,57,-99.99,,,-99.99,,2013-08-05 15:16:00,
2013-08-05 11:25:00,66.0,48.0,29.96,NNW,328,1.0,-999.0,53,-99.99,,,-99.99,,2013-08-05 15:25:00,
2013-08-05 11:38:00,67.0,49.0,29.96,SW,227,1.0,-999.0,52,-99.99,,,-99.99,,2013-08-05 15:38:00,
2013-08-05 11:57:00,68.0,50.0,29.96,NNW,342,1.0,-999.0,53,-99.99,,,-99.99,,2013-08-05 15:57:00,
2013-08-05 12:10:00,68.0,48.0,29.96,SSE,153,2.0,-999.0,49,-99.99,,,-99.99,,2013-08-05 16:10:00,
2013-08-05 12:26:00,69.0,50.0,29.96,NNW,346,2.0,-999.0,50,-99.99,,,-99.99,,2013-08-05 16:26:00,
2013-08-05 12:33:00,70.0,49.0,29.96,SSW,192,1.0,-999.0,47,-99.99,,,-99.99,,2013-08-05 16:33:00,
2013-08-05 12:45:00,70.0,47.0,29.96,SW,225,2.0,-999.0,44,-99.99,,,-99.99,,2013-08-05 16:45:00,
2013-08-05 13:08:00,71.0,48.0,29.96,SE,124,2.0,-999.0,44,-99.99,,,-99.99,,2013-08-05 17:08:00,
2013-08-05 13:17:00,73.0,48.0,29.96,WNW,297,2.0,-999.0,41,-99.99,,,-99.99,,2013-08-05 17:17:00,
2013-08-05 13:22:00,72.0,49.0,29.96,West,271,2.0,-999.0,44,-99.99,,,-99.99,,2013-08-05 17:22:00,
2013-08-05 13:50:00,74.0,49.0,29.95,NW,317,1.0,-999.0,41,-99.99,,,-99.99,,2013-08-05 17:50:00,
2013-08-05 13:57:00,74.0,48.0,29.95,NW,319,2.0,-999.0,40,-99.99,,,-99.99,,2013-08-05 17:57:00,
2013-08-05 14:13:00,74.0,48.0,29.95,NW,317,1.0,-999.0,40,-99.99,,,-99.99,,2013-08-05 18:13:00,
2013-08-05 14:26:00,75.0,47.0,29.95,South,179,2.0,-999.0,37,-99.99,,,-99.99,,2013-08-05 18:26:00,
2013-08-05 14:38:00,76.0,49.0,29.95,North,358,1.0,-999.0,38,-99.99,,,-99.99,,2013-08-05 18:38:00,
2013-08-05 14:44:00,76.0,49.0,29.95,WSW,253,1.0,-999.0,38,-99.99,,,-99.99,,2013-08-05 18:44:00,
2013-08-05 14:54:00,76.0,47.0,29.95,WSW,243,1.0,-999.0,36,-99.99,,,-99.99,,2013-08-05 18:54:00,
2013-08-05 15:05:00,76.0,47.0,29.95,WSW,243,1.0,-999.0,36,-99.99,,,-99.99,,2013-08-05 19:05:00,
2013-08-05 15:15:00,77.0,47.0,29.94,SSW,195,2.0,-999.0,35,-99.99,,,-99.99,,2013-08-05 19:15:00,
2013-08-05 15:39:00,76.0,46.0,29.94,NNW,342,2.0,-999.0,35,-99.99,,,-99.99,,2013-08-05 19:39:00,
2013-08-05 15:52:00,77.0,47.0,29.94,NNE,13,1.0,-999.0,35,-99.99,,,-99.99,,2013-08-05 19:52:00,
2013-08-05 16:09:00,77.0,48.0,29.94,WNW,297,1.0,-999.0,36,-99.99,,,-99.99,,2013-08-05 20:09:00,
2013-08-05 16:15:00,77.0,48.0,29.94,West,263,1.0,-999.0,36,-99.99,,,-99.99,,2013-08-05 20:15:00,
2013-08-05 16:38:00,74.0,47.0,29.94,SW,221,2.0,-999.0,38,-99.99,,,-99.99,,2013-08-05 20:38:00,
2013-08-05 16:48:00,74.0,45.0,29.94,NE,39,2.0,-999.0,36,-99.99,,,-99.99,,2013-08-05 20:48:00,
2013-08-05 16:57:00,74.0,47.0,29.94,NNW,330,1.0,-999.0,38,-99.99,,,-99.99,,2013-08-05 20:57:00,
2013-08-05 17:09:00,74.0,47.0,29.94,NW,313,2.0,-999.0,38,-99.99,,,-99.99,,2013-08-05 21:09:00,
2013-08-05 17:19:00,74.0,46.0,29.94,NW,322,1.0,-999.0,37,-99.99,,,-99.99,,2013-08-05 21:19:00,
2013-08-05 17:26:00,74.0,50.0,29.94,NNE,25,1.0,-999.0,43,-99.99,,,-99.99,,2013-08-05 21:26:00,
2013-08-05 17:47:00,73.0,47.0,29.95,NW,317,1.0,-999.0,40,-99.99,,,-99.99,,2013-08-05 21:47:00,
2013-08-05 17:53:00,73.0,47.0,29.95,NE,35,1.0,-999.0,39,-99.99,,,-99.99,,2013-08-05 21:53:00,
2013-08-05 18:05:00,73.0,49.0,29.95,SE,127,1.0,-999.0,42,-99.99,,,-99.99,,2013-08-05 22:05:00,
2013-08-05 18:15:00,73.0,52.0,29.95,NNW,328,0.0,-999.0,47,-99.99,,,-99.99,,2013-08-05 22:15:00,
2013-08-05 18:44:00,70.0,54.0,29.96,East,95,0.0,-999.0,57,-99.99,,,-99.99,,2013-08-05 22:44:00,
2013-08-05 18:53:00,69.0,55.0,29.97,East,95,0.0,-999.0,60,-99.99,,,-99.99,,2013-08-05 22:53:00,
2013-08-05 19:07:00,69.0,55.0,29.97,East,95,0.0,-999.0,60,-99.99,,,-99.99,,2013-08-05 23:07:00,
2013-08-05 19:17:00,68.0,54.0,29.97,East,95,0.0,-999.0,61,-99.99,,,-99.99,,2013-08-05 23:17:00,
2013-08-05 19:28:00,68.0,56.0,29.98,East,95,0.0,-999.0,65,-99.99,,,-99.99,,2013-08-05 23:28:00,
2013-08-05 19:46:00,66.0,55.0,29.98,East,95,0.0,-999.0,67,-99.99,,,-99.99,,2013-08-05 23:46:00,
2013-08-05 19:57:00,66.0,54.0,29.99,East,95,0.0,-999.0,66,-99.99,,,-99.99,,2013-08-05 23:57:00,
2013-08-05 20:03:00,65.0,54.0,29.99,East,95,0.0,-999.0,67,-99.99,,,-99.99,,2013-08-06 00:03:00,
2013-08-05 20:15:00,64.0,54.0,30.00,East,95,0.0,-999.0,71,-99.99,,,-99.99,,2013-08-06 00:15:00,
2013-08-05 20:24:00,64.0,54.0,30.00,East,95,0.0,-999.0,71,-99.99,,,-99.99,,2013-08-06 00:24:00,
2013-08-05 20:37:00,63.0,54.0,30.00,East,95,0.0,-999.0,72,-99.99,,,-99.99,,2013-08-06 00:37:00,
2013-08-05 20:45:00,62.0,54.0,30.01,East,95,0.0,-999.0,74,-99.99,,,-99.99,,2013-08-06 00:45:00,
2013-08-05 20:57:00,61.0,53.0,30.01,East,95,0.0,-999.0,74,-99.99,,,-99.99,,2013-08-06 00:57:00,
2013-08-05 21:10:00,61.0,53.0,30.01,East,95,0.0,-999.0,76,-99.99,,,-99.99,,2013-08-06 01:10:00,
2013-08-05 21:28:00,59.0,52.0,30.02,East,95,0.0,-999.0,79,-99.99,,,-99.99,,2013-08-06 01:28:00,
2013-08-05 21:40:00,59.0,53.0,30.03,East,95,0.0,-999.0,80,-99.99,,,-99.99,,2013-08-06 01:40:00,
2013-08-05 21:50:00,58.0,52.0,30.03,East,95,0.0,-999.0,81,-99.99,,,-99.99,,2013-08-06 01:50:00,
2013-08-05 21:57:00,58.0,53.0,30.03,East,95,0.0,-999.0,82,-99.99,,,-99.99,,2013-08-06 01:57:00,
2013-08-05 22:10:00,58.0,53.0,30.03,East,95,0.0,-999.0,83,-99.99,,,-99.99,,2013-08-06 02:10:00,
2013-08-05 22:27:00,57.0,52.0,30.03,East,95,0.0,-999.0,84,-99.99,,,-99.99,,2013-08-06 02:27:00,
2013-08-05 22:33:00,56.0,51.0,30.03,East,95,0.0,-999.0,84,-99.99,,,-99.99,,2013-08-06 02:33:00,
2013-08-05 22:47:00,56.0,52.0,30.03,East,95,0.0,-999.0,85,-99.99,,,-99.99,,2013-08-06 02:47:00,
2013-08-05 22:52:00,55.0,51.0,30.04,East,95,0.0,-999.0,86,-99.99,,,-99.99,,2013-08-06 02:52:00,
2013-08-05 23:02:00,55.0,51.0,30.04,East,95,0.0,-999.0,86,-99.99,,,-99.99,,2013-08-06 03:02:00,
2013-08-05 23:26:00,55.0,51.0,30.04,East,95,0.0,-999.0,87,-99.99,,,-99.99,,2013-08-06 03:26:00,
2013-08-05 23:35:00,54.0,50.0,30.04,East,95,0.0,-999.0,87,-99.99,,,-99.99,,2013-08-06 03:35:00,
2013-08-05 23:45:00,54.0,51.0,30.04,East,95,0.0,-999.0,88,-99.99,,,-99.99,,2013-08-06 03:45:00,
2013-08-05 23:52:00,54.0,51.0,30.04,East,95,0.0,-999.0,88,-99.99,,,-99.99,,2013-08-06 03:52:00,